Location: Lalanga
(4.5882°N, 32.9072°E)
Time: 13:15:55
(UTC+00:00)

ADEOS Rocket - Pass Details

Date: 24 January 2020
Orbit: 859 x 1306 km, 98.7° (Epoch: 22 February)

Event Time Altitude Azimuth Distance (km) Brightness Sun altitude
Rises 16:08:18 0° 20° (NNE) 4,080 5.9 -3.4°
Reaches altitude 10° 16:10:53 10° 23° (NNE) 3,167 5.3 -4.0°
Maximum altitude 16:18:11 63° 103° (ESE) 1,410 3.7 -5.7°
Drops below altitude 10° 16:25:51 10° 182° (S) 3,321 6.1 -7.5°
Sets 16:28:36 0° 185° (S) 4,290 6.7 -8.2°
